Weather in Kurylivka

Ukraine / Dnipropetrovsk Region     48°34′31″N   34°36′14″E
temp.,
°C
wind,
m/s
gust,
m/s
humid.,
%
clouds,
%
prec.,
mm/h
press.,
hPa
HPBL,
m
18 may, tue
tue1800:00+15sw3587100 0.0 100590
03:00+14ssw3794100 0.0 1005164
06:00+13ssw3792100 0.1 1005238
09:00+17ssw577577 0.1 1006633
12:00+20s675934 0.2 10051492
15:00+19ssw8116987 1.4 10041027
18:00+17s7127859 0.1 1004853
21:00+15sse5118397 0.1 1004396
19 may, wed
wed1900:00+13s51091100 0.0 1004357
03:00+11sse41094100 0.0 1004287
06:00+12sse4895100 0.1 1004284
09:00+16s567023 0.1 1004993
12:00+19s785322 0.5 10041737
15:00+16ssw787195 1.2 1004896
18:00+15ssw357928 0.0 1004543
21:00+13wsw348866 0.6 100588
20 may, thu
thu2000:00+12wsw6119558 0.2 1006395
03:00+12wsw71188100 0.2 1006685
06:00+12wsw51091100 0.1 1008558
09:00+15wsw797331 0.1 10091037
12:00+19wsw7105224 0.0 10101756
15:00+19wsw685596 0.0 10101446
18:00+17sw3565100 0.0 1011444
21:00+15nnw2372100 0.0 101274
21 may, fri
fri2100:00+14n478487 0.1 1013259
03:00+11nne5108999 0.1 1014328
06:00+11ne61281100 0.0 1013401
09:00+14ene71268100 0.0 1013507
12:00+17ene61068100 0.0 1013687
15:00+20ene5764100 0.0 1012897
18:00+21ne5769100 0.0 1011721
21:00+16nne5109394 0.4 1011253
22 may, sat
sat2200:00+14n4896100 0.0 1011172
03:00+13n4798100 0.0 1011143
06:00+13n599798 0.0 1011228
09:00+18n678034 0.0 1011454
12:00+23nne566418 0.0 1010904
15:00+26nne5556100 0.0 10101481
18:00+25n5664100 0.0 1010716
21:00+20nnw48875 0.0 1011139